Tracking 25193 objects as of 17-Jan-2022
HD Live streaming from Space Station
objects crossing your sky now

LEMUR 2 ALEXANDER

Track LEMUR 2 ALEXANDER now!
10-day predictions
LEMUR 2 ALEXANDER is classified as:


NORAD ID: 43559
Int'l Code: 2018-046F
Perigee: 454.9 km
Apogee: 464.2 km
Inclination: 51.6 °
Period: 93.6 minutes
Semi major axis: 6830 km
RCS: Unknown
Launch date: May 21, 2018
Source: United States (US)
Launch site: WALLOPS ISLAND (WLPIS)
aabbcc
Your satellite tracking list
Your tracking list is empty




NASA's NSSDC Master Catalog

Two Line Element Set (TLE):
1 43559U 18046F   22016.73737336  .00021341  00000-0  57282-3 0  9993
2 43559  51.6379 186.8821 0006841 216.2365 143.8156 15.37866964195948
Source of the keplerian elements: AFSPC